Regional Weather Roundup
Issued by NWS Upton, NY

Current Version | Previous Version | Text Only | Print | Product List | Glossary Off
Versions: 1 2 3 4 5 6 7 8 9 10 11 12 13 14 15 16 17 18 19 20 21 22 23 24 25 26 27 28 29 30 31 32 33 34 35 36 37 38 39 40 41 42 43 44 45 46 47 48 49 50
000 ASUS41 KOKX 120305 RWROKX Regional Weather Roundup National Weather Service New York NY 1000 PM EST TUE DEC 11 2018 Note: "FAIR" indicates few or no clouds below 12,000 feet with no significant weather and/or obstructions to visibility. NYZ071-072-176-178-NJZ106-104-120400- New York City Metro Area CITY SKY/WX TMP DP RH WIND PRES REMARKS Central Park MOCLDY 34 21 59 MISG 29.98S Bronx Lehman C N/A 34 23 64 NW8 N/A WCI 27 LaGuardia Arpt FAIR 36 22 56 NW14 29.96S WCI 27 Queens College N/A 34 23 64 NW13 N/A WCI 25 Kennedy Intl FAIR 35 23 61 NW16 29.97S WCI 25 Breezy Point N/A 34 N/A N/A NW12G18 N/A WCI 25 Brooklyn Coll N/A 34 23 64 W13 N/A WCI 25 Staten Island N/A 34 23 64 NW10 N/A WCI 26 Newark/Liberty FAIR 33 20 58 W9 29.97F WCI 25 Teterboro FAIR 33 22 63 NW7 29.96F WCI 27 $$ NYZ177-179-078>081-120400- Long Island New York CITY SKY/WX TMP DP RH WIND PRES REMARKS Jones Beach N/A 36 N/A N/A NW15G21 N/A WCI 26 Wantagh N/A 34 25 69 NW9 N/A WCI 26 Hempstead N/A 36 27 69 W12 29.98S WCI 27 Matinecock Pt N/A 36 N/A N/A NW20 N/A WCI 25 Farmingdale FAIR 32 24 72 NW5 29.94F WCI 27 MacArthur/ISP FAIR 30 27 88 W5 29.93S WCI 25 Stony Brook N/A 32 28 86 W3 N/A Shirley FAIR 29 25 85 NW3 29.93F Mt Sinai Harb N/A N/A N/A N/A SW3 N/A Westhampton CLOUDY 28 24 85 NW3 29.94F East Hampton CLOUDY 27 25 92 CALM 29.92F Southold N/A 34 32 93 NW3 N/A Montauk N/A 38 28 67 W7 29.94S WCI 33 $$ NYZ052-065-067-120400- Hudson Valley CITY SKY/WX TMP DP RH WIND PRES REMARKS White Plains CLOUDY 32 21 64 NW14 29.92F WCI 22 Larchmont Harb N/A 34 N/A N/A W13 N/A WCI 25 Croton On Huds N/A 32 N/A N/A N8G14 N/A WCI 25 Somers N/A 30 21 69 N7 N/A WCI 23 Brewster N/A 30 21 69 N8 N/A WCI 23 Newburgh CLOUDY 28 23 80 CALM 29.96F Montgomery CLOUDY 29 21 72 CALM 29.95F Otisville N/A 32 19 59 W5 N/A WCI 27 Warwick N/A 30 23 74 W5 N/A WCI 25 Suffern N/A 32 21 64 NW5 N/A WCI 27 Poughkeepsie CLOUDY 29 18 63 CALM 29.96F Albany FLURRIES 28 18 66 CALM 29.97F $$ NJZ001-105-106-008-010-013-015-019>022-104-120400- New Jersey CITY SKY/WX TMP DP RH WIND PRES REMARKS Newark/Liberty FAIR 33 20 58 W9 29.97F WCI 25 Teterboro FAIR 33 22 63 NW7 29.96F WCI 27 Caldwell CLOUDY 32 21 64 W7 29.98F WCI 26 Somerville CLOUDY 31 20 63 CALM 29.97F Linden FAIR 32 20 62 NW9 29.99S WCI 24 Perth Amboy N/A 32 N/A N/A W8 N/A WCI 25 Sussex CLOUDY 32 22 66 CALM 29.96S Andover N/A 31 19 61 CALM 29.97S Trenton CLOUDY 32 21 64 W5 29.99F WCI 27 Millville FAIR N/A N/A N/A CALM 30.01S Atlantic City FAIR 29 21 72 CALM 30.02R Wrightstown FAIR 32 20 62 W8 29.97 WCI 25 Toms River FAIR 28 22 78 W7 30.01R WCI 21 Belmar FAIR 32 22 66 W9 29.98F WCI 24 $$ PAZ047>061-062-071-120400- Eastern Pennsylvania CITY SKY/WX TMP DP RH WIND PRES REMARKS Philadelphia MOCLDY 33 20 58 N3 30.03S Allentown CLOUDY 32 20 61 W5 30.00S WCI 27 Scranton CLOUDY 29 18 63 CALM 29.96S $$ CTZ002-004>006-009-010-012-RIZ004-006-007-MAZ004-011-015-120400- Southern New England In CT CITY SKY/WX TMP DP RH WIND PRES REMARKS Bradley Intl CLOUDY 29 19 66 N7 29.94F WCI 22 Hartford CLOUDY 31 20 63 N6 29.94F WCI 25 Danbury CLOUDY 29 21 72 CALM 29.95R Wtrbury/Oxford CLOUDY 29 24 82 N7 29.91F WCI 22 Norwalk Harbor N/A N/A N/A N/A W7 N/A Bridgeport MOCLDY 29 25 85 NW6 29.93F WCI 23 Meriden CLOUDY 29 24 82 NW5 29.94F WCI 24 New Haven CLEAR 30 27 86 N7 29.93F WCI 23 Chester MOCLDY 32 25 74 CALM 29.91F Groton CLOUDY 31 28 89 CALM 29.93S Willimantic CLOUDY 29 23 78 N3 29.93F In RI CITY SKY/WX TMP DP RH WIND PRES REMARKS Providence FLURRIES 32 27 81 CALM 29.93F Block Island CLOUDY 37 30 75 NW7 29.92F WCI 32 Westerly CLOUDY 35 28 75 N3 29.93F In MA CITY SKY/WX TMP DP RH WIND PRES REMARKS Boston CLOUDY 35 16 45 N6 29.93F WCI 30 Worcester CLOUDY 28 17 63 N5 29.88F WCI 23 Westfield CLOUDY 27 19 72 CALM 29.93F Provincetown CLOUDY 36 24 62 W8 29.93F WCI 30 Nantucket MOCLDY 29 24 82 W7 29.93F WCI 22 $$ ANZ330-335-338-340-345-350-353-355-120400- Coastal Marine Observations STATION/POSITION TIME SKY/WX TEMP WIND PRES VSBY WAVE AIR SEA DIR/SP/G HT/PER (UTC) (F) (DEG/KT/KT) (MB) (MI) (FT/S) NY Harb Entrance 0250 37 45 300/ 21/ 27 1014.4 4/ 9 20 S Fire Island 0250 40 48 290/ 17/ 21 1013.7 4/ 9 Great South Bay NOT AVBL 23 SSW Montauk P 0250 40 48 290/ 12/ 16 1013.4 4/ 9 15 E Barnegat Li 0230 50 N/A 5/10 Hudson Canyon 0250 44 280/ 14/ 17 1013.9 5/10 Kings Point 0248 41 N/A Execution Rocks 0230 42 280/ 12/ 14 N/A Western LI Sound 0150 37 290/ 12/ 14 N/A 0 Central LI Sound 0215 39 45 240/ 10/ 12 N/A 0 Robbins Reef 0248 35 310/ 10/ 13 1015.2 $$ >>>>>>>>>>>>>>>>>>>>>>>>>>>> KEY <<<<<<<<<<<<<<<<<<<<<<<<<<< > < > SKY/WX - Sky Condition/Present Weather < > TMP - Temperature in Fahrenheit < > DP - Dew Point in Fahrenheit < > RH - Relative Humidity in Percent < > WIND - Direction (from) and Speed in MPH < > PRES - Mean Sea Level Pressure (inches of Hg) < > WCI - Wind Chill Index < > VSB - Visibility in Miles < > HX - Heat Index < > TC - Temperature in Celsius < > VRB - Variable Wind Direction < > < >>>>>>>>>>>>>>>>>>>>>>>>>>>> KEY <<<<<<<<<<<<<<<<<<<<<<<<<<<

USA.gov is the U.S. government's official web portal to all federal, state and local government web resources and services.